Waarnemingen

Advertentie
Mijn weer
Lakaträsk, Zweden (2174): temperatuur & dauwpunt: 11.10.2017 09:00:00 - 17.10.2017 09:00:00 (CEST)Lakaträsk, Zweden (2174): windsnelheid & windstoten: 11.10.2017 09:00:00 - 17.10.2017 09:00:00 (CEST)Lakaträsk, Zweden (2174): windrichting: 11.10.2017 09:00:00 - 17.10.2017 09:00:00 (CEST)Lakaträsk, Zweden (2174): luchtdruk: 11.10.2017 09:00:00 - 17.10.2017 09:00:00 (CEST)Lakaträsk, Zweden (2174): zicht: 11.10.2017 09:00:00 - 17.10.2017 09:00:00 (CEST)Lakaträsk, Zweden (2174): neerslag: 11.10.2017 09:00:00 - 17.10.2017 09:00:00 (CEST)
Datum & Tijd tt [°C] td [°C] ff [km/u] ff [kn] fx [km/u] fx [kn] dd ppp [hPa] vv [km] rr [mm]
17.10.2017 09:00:00 1,6 0,0 3 1 9 5 ZZW 1001,7 50 0,0
17.10.2017 08:00:00 2,5 0,1 4 2 18 10 W 1001,2 50 0,0
17.10.2017 07:00:00 2,7 0,3 6 4 14 8 W 1001,4 50 0,0
17.10.2017 06:00:00 2,6 0,2 3 2 14 8 WZW 1001,2 50 0,0
17.10.2017 05:00:00 2,1 0,0 4 2 18 10 Z 1000,9 50 0,0
17.10.2017 04:00:00 4,0 0,5 5 3 21 11 WZW 1000,4 50 0,0
17.10.2017 03:00:00 5,0 0,8 10 6 24 13 W 999,9 50 0,0
17.10.2017 02:00:00 5,2 0,8 11 6 28 15 W 999,4 50 0,0
17.10.2017 01:00:00 5,0 0,8 12 7 30 16 W 998,7 50 0,0
17.10.2017 00:00:00 5,2 0,6 10 6 26 14 W 997,9 50 0,0
16.10.2017 23:00:00 5,5 0,3 13 7 35 19 W 997,2 50 0,0
16.10.2017 22:00:00 5,8 0,1 14 8 35 19 W 996,4 50 0,0
16.10.2017 21:00:00 6,2 0,1 18 10 53 29 W 995,8 50 0,0
16.10.2017 20:00:00 6,3 0,0 16 9 46 25 W 995,4 50 0,0
16.10.2017 19:00:00 6,6 0,1 17 9 48 26 W 995,0 50 0,0
16.10.2017 18:00:00 6,8 0,2 19 10 49 26 W 994,5 50 0,0
16.10.2017 17:00:00 7,5 0,5 24 13 58 31 W 993,7 50 0,0
16.10.2017 16:00:00 7,9 0,6 23 13 57 31 W 993,1 50 0,0
16.10.2017 15:00:00 9,3 1,2 26 14 54 29 W 991,5 50 0,0
16.10.2017 14:00:00 8,9 2,0 24 13 63 34 W 990,3 50 0,0
16.10.2017 13:00:00 8,7 2,7 22 12 56 31 W 989,2 50 0,0
16.10.2017 12:00:00 8,4 4,2 23 12 50 27 W 987,7 50 0,0
16.10.2017 11:00:00 7,3 6,9 9 5 38 21 ZW 987,6 50 0,4
16.10.2017 10:00:00 6,3 6,0 14 8 39 21 ZZO 988,8 7 0,7
16.10.2017 09:00:00 5,8 5,4 16 9 43 23 ZO 990,4 4,1 1,2
16.10.2017 08:00:00 5,7 5,3 17 9 43 23 ZO 992,6 3,9 0,6
16.10.2017 07:00:00 5,5 4,8 18 10 40 22 ZO 994,5 13 1,1
16.10.2017 06:00:00 5,3 4,7 16 9 29 16 ZO 997,0 7 1,4
16.10.2017 05:00:00 5,1 4,7 10 6 23 12 ZO 999,4 14 1,6
16.10.2017 04:00:00 5,0 4,9 7 4 19 10 ZO 1000,7 18 0,4
16.10.2017 03:00:00 4,9 4,9 8 5 22 12 ZO 1002,2 15 0,4
16.10.2017 02:00:00 4,4 4,4 6 4 16 8 OZO 1003,5 1,4 0,0
16.10.2017 01:00:00 4,0 4,0 8 4 16 9 OZO 1004,7 1,1 0,0
16.10.2017 00:00:00 3,4 3,4 7 4 16 9 OZO 1005,7 1,7 0,0
15.10.2017 23:00:00 3,5 3,5 4 2 14 8 O 1006,3 0,8 0,0
15.10.2017 22:00:00 3,5 3,5 6 4 13 7 OZO 1006,8 1,1 0,0
15.10.2017 21:00:00 3,4 3,4 6 3 13 7 ZO 1008,1 0,8 0,0
15.10.2017 20:00:00 3,4 3,4 4 2 13 7 ZO 1008,3 0,7 0,0
15.10.2017 19:00:00 3,5 3,4 5 3 14 8 ZO 1008,7 1,0 0,0
15.10.2017 18:00:00 3,9 3,8 5 3 11 6 OZO 1008,4 2,2 0,0
15.10.2017 17:00:00 4,1 3,7 3 2 8 4 ZO 1009,0 31 0,0
15.10.2017 16:00:00 4,2 3,8 4 2 11 6 ZO 1008,7 20 0,0
15.10.2017 15:00:00 4,4 3,8 5 3 9 5 ZZO 1008,6 13 0,0
15.10.2017 14:00:00 4,4 3,7 4 2 12 7 ZZO 1008,4 36 0,0
15.10.2017 13:00:00 4,6 3,9 4 2 11 6 Z 1008,3 50 0,0
15.10.2017 12:00:00 4,5 4,4 4 2 10 5 Z 1007,9 4,0 0,0
15.10.2017 11:00:00 4,3 4,0 4 2 13 7 ZW 1007,6 7 0,0
15.10.2017 10:00:00 4,5 4,4 4 2 9 5 Z 1007,0 7 0,0
15.10.2017 09:00:00 4,4 4,4 3 1 9 5 ZW 1006,8 4,8 0,0
15.10.2017 08:00:00 4,4 4,4 3 2 10 5 Z 1006,2 3,4 0,3
15.10.2017 07:00:00 4,2 4,2 0 0 7 4 N 1005,8 1,3 0,0
15.10.2017 06:00:00 3,5 3,5 0 0 6 3 N 1005,6 28 0,0
15.10.2017 05:00:00 3,1 3,1 0 0 6 3 N 1004,9 46 0,0
15.10.2017 04:00:00 3,1 3,1 2 1 7 4 OZO 1004,7 25 0,0
15.10.2017 03:00:00 2,8 2,8 0 0 6 3 N 1004,6 6 0,0
15.10.2017 02:00:00 3,1 3,1 3 2 5 3 ONO 1003,8 13 0,0
15.10.2017 01:00:00 3,7 3,7 0 0 3 2 N 1003,7 17 0,0
15.10.2017 00:00:00 3,5 3,4 0 0 4 2 N 1003,7 3,8 0,0
14.10.2017 23:00:00 4,0 3,9 0 0 4 2 N 1003,7 11 0,1
14.10.2017 22:00:00 4,7 4,6 2 1 5 3 Z 1003,8 1,5 0,0
14.10.2017 21:00:00 4,7 4,6 2 1 7 4 Z 1003,9 24 0,0
14.10.2017 20:00:00 4,8 4,7 3 2 8 5 ZO 1003,9 2,8 0,1
14.10.2017 19:00:00 4,7 4,6 3 2 9 5 OZO 1003,9 9 0,1
14.10.2017 18:00:00 4,8 4,5 5 3 11 6 OZO 1003,9 4,1 0,0
14.10.2017 17:00:00 4,9 4,5 4 2 18 10 OZO 1004,1 11 0,0
14.10.2017 16:00:00 4,9 4,6 7 4 16 9 OZO 1004,3 4,3 0,0
14.10.2017 15:00:00 4,8 4,4 7 4 18 10 OZO 1004,5 13 0,0
14.10.2017 14:00:00 4,7 4,1 7 4 21 11 ZO 1004,9 20 0,1
14.10.2017 13:00:00 4,4 4,0 9 5 24 13 ZO 1005,2 9 0,8
14.10.2017 12:00:00 4,1 3,4 11 6 26 14 ZO 1005,6 20 1,6
14.10.2017 11:00:00 4,0 3,4 9 5 26 14 ZO 1006,2 12 0,9
14.10.2017 10:00:00 3,9 3,0 13 7 29 16 ZZO 1006,4 38 0,7
14.10.2017 09:00:00 4,2 3,6 14 8 28 15 ZO 1006,8 22 0,8
14.10.2017 08:00:00 3,8 3,2 10 6 21 11 OZO 1007,2 16 0,7
14.10.2017 07:00:00 3,7 2,7 10 6 24 13 OZO 1007,6 50 0,0
14.10.2017 06:00:00 3,5 2,3 11 6 21 11 OZO 1008,7 50 0,0
14.10.2017 05:00:00 3,4 2,2 5 3 18 10 O 1009,6 50 0,0
14.10.2017 04:00:00 3,3 1,8 7 4 16 9 OZO 1010,0 50 0,0
14.10.2017 03:00:00 3,3 1,3 7 4 15 8 OZO 1010,3 50 0,0
14.10.2017 02:00:00 3,2 1,4 5 3 18 10 ZZO 1010,7 50 0,0
14.10.2017 01:00:00 3,1 1,5 9 5 21 11 ZZO 1011,0 50 0,0
14.10.2017 00:00:00 3,1 1,6 5 3 18 10 ZZO 1011,8 50 0,0
13.10.2017 23:00:00 3,1 1,5 6 3 13 7 ZO 1012,5 50 0,0
13.10.2017 22:00:00 2,6 2,0 4 2 9 5 OZO 1013,1 50 0,0
13.10.2017 21:00:00 2,1 1,8 0 0 6 3 N 1013,7 27 0,0
13.10.2017 20:00:00 2,1 1,8 0 0 3 2 N 1014,2 27 0,0
13.10.2017 19:00:00 2,1 1,7 0 0 5 3 N 1014,4 36 0,0
13.10.2017 18:00:00 2,1 1,7 0 0 7 4 N 1014,4 37 0,0
13.10.2017 17:00:00 2,7 1,8 2 1 7 4 W 1014,3 50 0,0
13.10.2017 16:00:00 3,0 2,1 3 2 9 5 W 1014,4 50 0,0
13.10.2017 15:00:00 2,9 1,9 4 2 8 5 NW 1014,5 50 0,0
13.10.2017 14:00:00 2,6 1,7 0 0 10 5 N 1014,4 50 0,0
13.10.2017 13:00:00 2,5 1,9 0 0 6 3 N 1014,0 41 0,0
13.10.2017 12:00:00 2,1 1,7 0 0 10 5 N 1013,9 15 0,0
13.10.2017 11:00:00 1,7 1,4 2 1 10 6 N 1013,9 25 0,0
13.10.2017 10:00:00 1,3 1,2 6 3 13 7 NNW 1013,5 6 0,0
13.10.2017 09:00:00 1,4 1,1 6 3 11 6 NW 1013,1 16 0,0
13.10.2017 08:00:00 1,4 1,1 3 2 9 5 N 1012,5 28 0,0
13.10.2017 07:00:00 1,6 1,3 4 2 10 5 NNW 1012,0 30 0,0
13.10.2017 06:00:00 1,8 1,4 4 2 9 5 NW 1011,4 50 0,0
13.10.2017 05:00:00 1,8 1,4 3 1 12 6 N 1010,9 50 0,0
13.10.2017 04:00:00 2,1 1,4 3 2 14 7 NW 1010,3 50 0,0
13.10.2017 03:00:00 2,7 1,8 6 4 16 9 N 1009,9 50 0,0
13.10.2017 02:00:00 2,9 2,0 5 3 14 7 N 1009,3 50 0,0
13.10.2017 01:00:00 3,1 2,5 3 2 9 5 N 1008,5 50 0,0
13.10.2017 00:00:00 2,5 2,2 2 1 10 5 NW 1008,1 28 0,0
12.10.2017 23:00:00 3,0 2,6 4 2 10 5 N 1007,7 50 0,0
12.10.2017 22:00:00 2,5 2,2 3 2 12 7 NNW 1007,4 22 0,0
12.10.2017 21:00:00 2,5 2,2 4 2 9 5 NO 1007,0 36 0,0
12.10.2017 20:00:00 2,9 2,5 5 3 13 7 NO 1006,5 36 0,0
12.10.2017 19:00:00 3,2 2,5 4 2 11 6 NO 1006,1 50 0,0
12.10.2017 18:00:00 3,5 3,1 4 2 8 4 ONO 1005,9 50 0,0
12.10.2017 17:00:00 3,8 3,4 3 1 6 3 NO 1005,5 47 0,0
12.10.2017 16:00:00 4,4 3,7 0 0 7 4 N 1005,2 50 0,0
12.10.2017 15:00:00 4,5 3,3 4 2 9 5 ONO 1004,8 50 0,0
12.10.2017 14:00:00 4,6 3,4 3 2 11 6 Z 1004,8 50 0,0
12.10.2017 13:00:00 4,3 3,4 2 1 11 6 OZO 1004,7 50 0,0
12.10.2017 12:00:00 4,3 3,4 4 2 11 6 O 1004,6 50 0,0
12.10.2017 11:00:00 3,6 3,2 4 2 10 6 O 1004,9 50 0,0
12.10.2017 10:00:00 3,4 3,1 0 0 15 8 N 1004,8 50 0,0
12.10.2017 09:00:00 3,1 2,8 8 4 17 9 O 1004,7 50 0,0
12.10.2017 08:00:00 2,9 2,8 5 3 12 6 O 1004,8 33 0,1
12.10.2017 07:00:00 2,0 1,7 0 0 14 7 N 1004,8 27 0,0
12.10.2017 06:00:00 2,7 2,7 5 3 14 7 O 1004,7 50 0,0
12.10.2017 05:00:00 2,3 2,3 0 0 5 3 N 1004,9 10 0,0
12.10.2017 04:00:00 2,7 2,7 0 0 8 4 N 1004,9 12 0,0
12.10.2017 03:00:00 3,3 3,3 3 2 8 4 OZO 1004,9 9 0,0
12.10.2017 02:00:00 3,0 3,0 2 1 6 4 ZZO 1005,2 2,8 0,0
12.10.2017 01:00:00 2,7 2,6 0 0 11 6 N 1005,2 7 0,2
12.10.2017 00:00:00 3,0 2,9 0 0 3 2 N 1005,6 10 0,1
11.10.2017 23:00:00 3,4 3,3 0 0 5 3 N 1006,1 6 0,0
11.10.2017 22:00:00 3,2 3,1 0 0 10 5 N 1006,2 15 0,0
11.10.2017 21:00:00 3,5 3,4 0 0 5 3 N 1006,2 14 0,0
11.10.2017 20:00:00 3,8 3,7 0 0 8 5 N 1006,3 29 0,0
11.10.2017 19:00:00 4,0 3,7 0 0 9 5 N 1006,4 49 0,0
11.10.2017 18:00:00 4,0 3,9 3 2 10 5 ONO 1006,4 50 0,0
11.10.2017 17:00:00 4,2 4,1 4 2 8 4 NNO 1006,2 6 0,0
11.10.2017 16:00:00 4,3 4,0 3 2 6 3 ONO 1006,3 6 0,3
11.10.2017 15:00:00 4,6 4,3 0 0 6 3 N 1006,5 8 0,3
11.10.2017 14:00:00 4,3 4,0 2 1 6 3 ONO 1006,6 23 0,0
11.10.2017 13:00:00 4,0 3,7 2 1 8 4 NNO 1006,6 11 0,0
11.10.2017 12:00:00 3,4 3,3 4 2 9 5 NNO 1006,8 4,1 0,0
11.10.2017 11:00:00 3,1 3,0 2 1 11 6 NO 1006,7 22 0,1
11.10.2017 10:00:00 2,6 2,5 4 2 10 5 NNO 1006,7 34 0,2
11.10.2017 09:00:00 2,0 1,9 3 1 13 7 N 1006,7 8 0,0

tt = temperatuur
td = dauwpunt
ff = windsnelheid
fx = windstoten
dd = windrichting
ppp = luchtdruk
vv = zicht
rr = neerslag

Weerstations in de omgeving